Regional Weather Roundup
Issued by NWS Mobile, AL

Home | Current Version | Previous Version | Text Only | Print | Product List | Glossary On
Versions: 1 2 3 4 5 6 7 8 9 10 11 12 13 14 15 16 17 18 19 20 21 22 23 24 25 26 27 28 29 30 31 32 33 34 35 36 37 38 39 40 41 42 43 44 45 46 47 48 49 50
000
ASUS44 KMOB 210210
RWRMOB
REGIONAL WEATHER ROUNDUP
NATIONAL WEATHER SERVICE MOBILE AL
800 PM CST THU NOV 20 2014

NOTE: "FAIR" INDICATES FEW OR NO CLOUDS BELOW 12,000 FEET WITH NO
      SIGNIFICANT WEATHER AND/OR OBSTRUCTIONS TO VISIBILITY.

  * THESE STATIONS ARE PART OF THE UNIVERSITY OF SOUTH ALABAMA
    MESONET AND ARE NOT UNDER NWS OR FAA QUALITY CONTROL.

ALZ061>064-210300-
COASTAL ALABAMA

CITY           SKY/WX    TMP DP  RH WIND       PRES   REMARKS
MOBILE REG APT CLEAR     49  44  83 CALM      30.25S
BROOKLEY FIELD CLEAR     47  43  86 S3        30.26S
USA CAMPUS*      N/A     48  45  87 CALM      30.26S
DOG RIVER*       N/A     46  45  93 CALM      30.25S


CITY           SKY/WX    TMP DP  RH WIND       PRES   REMARKS
MOUNT VERNON*    N/A     45  43  93 CALM      30.25R
SARALAND*      NOT AVBL
BAY MINETTE*   NOT AVBL
LOXLEY*          N/A     48  45  87 SE2       30.25S
ROBERTSDALE*     N/A     48  45  87 CALM      30.24S
FAIRHOPE*        N/A     45  43  93 CALM      30.24S
ELBERTA*         N/A     45  45 100 CALM      30.24S
FOLEY*           N/A     43  41  93 CALM      30.23S
GRAND BAY*       N/A     46  45  93 CALM      30.23R
DAUPHIN ISLND* NOT AVBL
BON SCOUR NWR* NOT AVBL
GULF SHORES    CLEAR     44  44  97 CALM      30.25S

$$

ALZ051>060-210300-
INTERIOR SOUTHWEST AND SOUTH CENTRAL ALABAMA

CITY           SKY/WX    TMP DP  RH WIND       PRES   REMARKS
GREENVILLE     CLEAR     46  42  86 CALM      30.24R
EVERGREEN      CLEAR     44  41  89 CALM      30.25R
CASTLEBERRY*   NOT AVBL
ATMORE*          N/A     50  45  81 S2        30.26R
DIXIE*           N/A     52  45  76 S2        30.23R
ANDALUSIA/OPP  CLEAR     48  41  76 SW3       30.25R
ANDALUSIA*       N/A     50  43  76 SW2       30.23S
FLORALA APT    CLEAR     46  41  82 CALM      30.27S
FLORALA*         N/A     43  41  93 CALM      30.23S

$$

FLZ001>006-210300-
WESTERN FLORIDA PANHANDLE

CITY           SKY/WX    TMP DP  RH WIND       PRES   REMARKS
PENSACOLA      CLEAR     51  45  79 CALM      30.25S
NAS PENSACOLA  CLEAR     43  41  93 CALM      30.25S
MILTON         PTCLDY    47  44  90 CALM      30.25S
WHTNG S FIELD  PTCLDY    50  43  77 CALM      30.26R


CITY           SKY/WX    TMP DP  RH WIND       PRES   REMARKS
WALNUT HILL*   NOT AVBL
JAY*             N/A     50  43  76 SE5       30.25S
DUKE FIELD     CLEAR     43  41  92 CALM      30.25S
CRESTVIEW      CLEAR     43  42  97 CALM      30.27R
VALPARAISO     CLEAR     47  44  87 NE3       30.25S
DESTIN         CLEAR     50  46  86 CALM      30.25S

$$

MSZ076-079-210300-
INTERIOR SOUTHEAST MISSISSIPPI

CITY           SKY/WX    TMP DP  RH WIND       PRES   REMARKS
LEAKESVILLE*     N/A     54  41  62 S3        30.24R
AGRICOLA*      NOT AVBL

$$

MARINE OBSERVATIONS

STATION/POSITION TIME  TEMP    WIND        PRES    WAVE
                       AIR SEA DIR/SP/G            HT/PER
                 (UTC) (F)     (DEG/KT/KT) (MB)    (FT/S)
PASCAGOULA       0200   52        CALM     1023.9R
PETIT BOIS ISLND 0200   62     170/  7/  8 1024.4R
GRAND BAY        0100   56     140/  3     1024.0S
KATRINA CUT      0100   59     150/  6     1024.7R
CEDAR POINT      0100   58     150/  5     1024.0R
E DAUPHIN ISLAND 0100   60     150/  3/  4 1024.1R
MIDDLE BAY LIGHT 0100   56     140/  6       N/A
USCG MOBILE BAY  0200   55 57   CALM  /  2 1023.1R
STATE DOCKS      0200   57 58              1023.8R
MEAHER PARK      0100   56     120/  4     1024.4S
WEEKS BAY        0100   47                   N/A
FORT MORGAN      0200   62     200/  5/  6 1023.7R
12 S ORANGE BCH  0200   63 69  160/  2/  4 1024.0S   1
PENSACOLA BAY    0200   56 58   CALM  /  1 1024.5S
64 S DAUPHIN ISL 0057   62 72   70/  6/ 10 1025.2    1/ 7
67 S FORT MORGAN 0100   62      80/  6     1024.0

$$

SELECTED LOCATIONS ACROSS THE REGION

CITY           SKY/WX    TMP DP  RH WIND       PRES   REMARKS
NEW ORLEANS    PTCLDY    57  45  64 SE7       30.23R
GULFPORT       CLEAR     49  44  83 CALM      30.25R
PASCAGOULA AP  CLEAR     41  41 100 CALM      30.25R FOG
PASCAGOULA*      N/A     48  48 100 CALM      30.25R
HATTIESBURG    CLEAR     55  43  63 S3        30.24R
LAUREL         CLEAR     52  41  66 S6        30.24R
MERIDIAN       PTCLDY    47  45  93 CALM      30.23R
JACKSON        PTCLDY    53  48  83 S5        30.18F
MONTGOMERY     PTCLDY    50  42  74 CALM      30.25R
TROY           CLEAR     44  41  89 CALM      30.26R
KINSTON*       NOT AVBL
GENEVA*          N/A     50  43  76 CALM      30.28R
ASHFORD*         N/A     50  43  76 SW2       30.23S
DOTHAN         CLEAR     49  41  74 CALM      30.28S
PANAMA CITY    CLEAR     43  42  97 CALM      30.25R

$$




USA.gov is the U.S. government's official web portal to all federal, state and local government web resources and services.